Flag for Cyprus Weather past 2 weeks in Paphos, Cyprus

Now
50 °F

Passing clouds.


Feels Like: 47 °F
Forecast: 53 / 61 °F
Wind: 7 mph from Northeast

Location: Paphos Airport

Current Time: Jan 29, 2015 at 6:40:55 AM

Latest Report: Jan 29, 2015 at 6:00 AM


Visibility: N/A

Pressure: 29.89 "Hg

Humidity: 82%

Dew point: 45 °F

Location of PaphosLocation

Historic Weather in Paphos — Graph

°F

Paphos temperature yesterday

Maximum temperature yesterday: 68 °F (at 2:00 PM)
Minimum temperature yesterday: 48 °F (at 1:30 AM)
Average temperature yesterday: 58 °F

Past Weeks' High & Low Weather Summary

 TemperatureHumidityPressure
High70 °F (Jan 23, 2:00 PM)94% (Jan 22, 9:00 PM)30.36 "Hg (Jan 22, 9:00 PM)
Low46 °F (Jan 16, 4:00 AM)34% (Jan 23, 11:30 PM)29.89 "Hg (Jan 28, 2:00 AM)
Average57 °F72%30.10 "Hg
* Reported Jan 14 5:00 AM — Jan 29 5:30 AM, Paphos, Weather by CustomWeather, © 2014

Note: Actual official high and low records may vary slightly from our data, if they occured in-between our weather recording intervals... More about our weather records

Advertising

Paphos weather history for previous 24 hours

 ConditionsComfort  
Time TempWeatherWind HumidityBarometerVisibility
5:30 AM
Jan 29
50 °FPassing clouds.7 mph82%29.89 "HgN/A
5:00 AM50 °FPassing clouds.7 mph88%29.89 "HgN/A
4:30 AM52 °FPassing clouds.8 mph82%29.89 "HgN/A
4:00 AM52 °FPassing clouds.7 mph82%29.89 "HgN/A
3:30 AM50 °FPassing clouds.7 mph88%29.89 "HgN/A
3:00 AM50 °FCool.7 mph88%29.89 "HgN/A
2:30 AM52 °FCool.6 mph82%29.89 "HgN/A
2:00 AM52 °FPassing clouds.7 mph82%29.89 "HgN/A
1:30 AM52 °FPassing clouds.7 mph82%29.92 "HgN/A
1:00 AM52 °FPartly cloudy.8 mph82%29.92 "HgN/A
12:30 AM54 °FPartly cloudy.7 mph82%29.92 "HgN/A
12:00 AM54 °FPartly cloudy.6 mph77%29.92 "HgN/A
11:30 PM
Jan 28
54 °FPartly cloudy.8 mph82%29.92 "HgN/A
11:00 PM54 °FPassing clouds.7 mph82%29.92 "HgN/A
10:30 PM54 °FPartly cloudy.7 mph82%29.92 "HgN/A
10:00 PM54 °FPartly cloudy.7 mph82%29.92 "HgN/A
9:30 PM55 °FPartly cloudy.3 mph77%29.92 "HgN/A
9:00 PM55 °FPartly cloudy.No wind77%29.92 "HgN/A
8:30 PM55 °FLight rain. Partly cloudy.7 mph77%29.92 "Hg5 mi
8:00 PM57 °FLight rain. Partly cloudy.6 mph72%29.92 "Hg5 mi
7:30 PM63 °FSprinkles. Passing clouds.3 mph56%29.92 "HgN/A
7:00 PM63 °FPassing clouds.2 mph56%29.92 "HgN/A
6:30 PM63 °FPassing clouds.3 mph56%29.92 "HgN/A
6:00 PM63 °FPassing clouds.8 mph56%29.92 "HgN/A
5:30 PM63 °FPassing clouds.9 mph56%29.92 "HgN/A
5:00 PM63 °FPassing clouds.9 mph56%29.92 "HgN/A
4:30 PM63 °FScattered clouds.9 mph59%29.89 "HgN/A
4:00 PM64 °FScattered clouds.12 mph60%29.89 "HgN/A
3:30 PM64 °FScattered clouds.3 mph49%29.89 "HgN/A
3:00 PM66 °FPassing clouds.3 mph43%29.89 "HgN/A
2:30 PM68 °FPassing clouds.3 mph38%29.89 "HgN/A
2:00 PM68 °FPassing clouds.3 mph40%29.89 "HgN/A
1:30 PM66 °FPassing clouds.5 mph43%29.89 "HgN/A
1:00 PM66 °FPassing clouds.6 mph46%29.89 "HgN/A
12:30 PM66 °FPassing clouds.5 mph46%29.92 "HgN/A
12:00 PM64 °FPassing clouds.5 mph49%29.92 "HgN/A
11:30 AM64 °FPassing clouds.5 mph49%29.92 "HgN/A
11:00 AM64 °FPassing clouds.3 mph52%29.92 "HgN/A
10:30 AM64 °FPassing clouds.No wind60%29.92 "HgN/A
10:00 AM63 °FPassing clouds.5 mph68%29.92 "HgN/A
9:30 AM59 °FPassing clouds.5 mph68%29.92 "HgN/A
9:00 AM57 °FPassing clouds.6 mph67%29.92 "HgN/A
8:30 AM54 °FPassing clouds.9 mph77%29.92 "HgN/A
8:00 AM52 °FPassing clouds.8 mph77%29.92 "HgN/A
7:30 AM50 °FScattered clouds.7 mph82%29.92 "HgN/A
7:00 AM50 °FScattered clouds.7 mph82%29.92 "HgN/A
6:30 AM52 °FPassing clouds.9 mph77%29.89 "HgN/A
6:00 AM52 °FPartly cloudy.8 mph82%29.89 "HgN/A
Weather by CustomWeather, © 2014

See weather overviewHow to use our weather pages